Regional Weather Roundup
Issued by NWS Wakefield, VA

Home | Current Version | Previous Version | Graphics & Text | Print | Product List | Glossary Off
Versions: 1 2 3 4 5 6 7 8 9 10 11 12 13 14 15 16 17 18 19 20 21 22 23 24 25 26 27 28 29 30 31 32 33 34 35 36 37 38 39 40 41 42 43 44 45 46 47 48 49 50

287
ASUS41 KAKQ 030115
RWRAKQ

REGIONAL WEATHER ROUNDUP
NATIONAL WEATHER SERVICE WAKEFIELD VA
900 PM EDT MON MAY 02 2016

Note: "fair" indicates few or no clouds below 12,000 feet with no
significant weather and/or obstructions to visibility. * = Denotes
station may not report precipitation (e.g., rain,snow,etc.),
thunder or fog.

VAZ042-051-052>054-056-030200-
NORTHERN VIRGINIA

CITY           SKY/WX    TMP DP  RH WIND       PRES   REMARKS
WASH NATIONAL  CLOUDY    68  60  75 E22       29.81F
DULLES         CLOUDY    64  63  96 CALM      29.88R THUNDER
FORT BELVOIR   NOT AVBL
QUANTICO       FAIR      69  65  86 NW6       29.84R
FREDERICKSBRG* LGT RAIN  73  65  74 SW14G23   29.82R
STAFFORD*      FAIR      73  62  69 W5        29.86R
WARRENTON      LGT RAIN  72  59  64 W6        29.85R
CULPEPER*      LGT RAIN  72  63  73 W8G16     29.87R
MANASSAS*      CLOUDY    66  64  94 CALM      29.87R
LEESBURG*      CLOUDY    64  64 100 S3        29.88R
WINCHESTER     DRIZZLE   64  63  94 S8        29.85F
FRONT ROYAL*   CLOUDY    63  63 100 S6        29.87R
LURAY*         LGT RAIN  61  61 100 SE3       29.89F
$$

VAZ048-049-060>072-079>083-030200-
CENTRAL AND SOUTH CENTRAL VIRGINIA

CITY           SKY/WX    TMP DP  RH WIND       PRES   REMARKS
RICHMOND       LGT RAIN  70  66  87 SE8       29.85S
CHESTERFIELD*  MOCLDY    72  55  56 SW9G16    29.86S
PETERSBURG*    LGT RAIN  71  63  77 S5        29.87F
HANOVER        CLOUDY    71  69  93 S9        29.86S THUNDER
TAPPAHANNOCK*  FAIR      71  65  81 S9        29.84F
QUINTON*       CLOUDY    68  66  93 S8        29.85S
CHARLOTTSVILLE LGT RAIN  66  62  87 SW6       29.88R
GORDONSVILLE*  CLOUDY    65  62  90 W7G21     29.87R
ORANGE*        LGT RAIN  68  64  88 SW13G25   29.88R
LOUISA*        FAIR      68  66  94 S3        29.85R
BUMPASS*       CLOUDY    65  64  94 CALM      29.87R
FARMVILLE*     MOCLDY    66  66 100 W5        29.88R
CREWE*         MOCLDY    66  66 100 CALM      29.85F
FORT PICKETT*  NOT AVBL
CHASE CITY*    FAIR      67  65  91 CALM      29.89R
CLARKSVILLE*   FAIR      66  64  94 S5        29.89R
SOUTH HILL*    FAIR      65  64  96 S7        29.94S
LAWRENCEVILLE* FAIR      66  64  94 S6        29.87F
EMPORIA*       FAIR      66  63  88 S3        29.90F
$$

VAZ088>098-030200-
SOUTHEAST VIRGINIA

CITY           SKY/WX    TMP DP  RH WIND       PRES   REMARKS
NORFOLK        HVY RAIN  69  64  84 SW29G39   29.93R
VIRGINIA BEACH TSTM      75  62  64 SW23G37   29.91R
NORFOLK NAVAL  TSTM      68  65  90 SW17G26   29.94R FOG
WEST POINT*    CLOUDY    66  64  90 SE8       29.88S VSB 1
SALUDA*        MOCLDY    68  67  94 S9        29.85R
NEWPORT NEWS   TSTM      69  65  86 SW21G36   29.92R FOG
LANGLEY AFB    NOT AVBL
FORT EUSTIS    NOT AVBL
WILLIAMSBURG*  FAIR      68  66  94 W9G17     29.91R
HR EXEC AP*    MOCLDY    68  63  83 SW9       29.98R THUNDER
FRANKLIN*      MOCLDY    67  64  90 SE10      29.92R
US460-WAKEFLD  FAIR      71  61  70 S7        29.89R
$$

VAZ020-022-025-037-045-030200-
WEST CENTRAL AND SOUTHWEST VIRGINIA

CITY           SKY/WX    TMP DP  RH WIND       PRES   REMARKS
STAUNTON*      MOCLDY    63  62  97 E3        29.91F
WAYNESBORO*    MOCLDY    62  60  93 CALM      29.91F
HOT SPRINGS VA MOCLDY    55  55 100 NW9       29.97S
LYNCHBURG      LGT RAIN  62  60  93 N5        29.93F
DANVILLE       FAIR      66  64  93 S3        29.89R
SOUTH BOSTON*  FAIR      65  64  95 CALM      29.88R
MARTINSVILLE   RAIN      61  58  90 N6        29.95R
ROANOKE        MOCLDY    64  61  90 NW5       29.94F
BLACKSBURG     MOCLDY    60  58  92 CALM      30.00R
DUBLIN*        LGT RAIN  61  57  85 W3        29.99R
MARION*        FAIR      58  56  94 CALM      29.99F
HILLSVILLE*    CLOUDY    57  56  94 N5        29.98S
RICHLANDS*     MOCLDY    56  53  91 CALM      29.96F
WISE*          LGT RAIN  55  55 100 SW3       30.00R
ABINGDON*      LGT RAIN  60  57  89 CALM      29.96F
$$

MDZ021>025-VAZ099-100-030200-
SOUTHERN MARYLAND AND THE DELMARVA PENINSULA

CITY           SKY/WX    TMP DP  RH WIND       PRES   REMARKS
PATUXENT RIVER CLOUDY    73  62  68 S9        29.81F
BAY BRIDGE APT NOT AVBL
LEONARDTOWN    CLOUDY    72  63  73 S5        29.83F
DOVER          NOT AVBL
GEORGETOWN     CLOUDY    60  58  92 SE7       29.85F
EASTON         TSTM     N/A N/A N/A NE3       29.87F
CAMBRIDGE        N/A     68  64  88 SE5       29.83F
SALISBURY      CLOUDY    71  66  84 SE6       29.84F
OCEAN CITY     CLOUDY    59  58  96 CALM      29.86F
WALLOPS ISLAND FAIR      63  61  93 S9        29.87F
ACCOMACK*      TSTM      68  63  83 SW6       29.87S
$$

NCZ012>017-030>032-030200-
NORTH CENTRAL AND EASTERN NORTH CAROLINA

CITY           SKY/WX    TMP DP  RH WIND       PRES   REMARKS
ROANOKE RAPIDS RAIN      66  64  94 S5        29.91S
RALEIGH        MOCLDY    69  65  86 S9        29.92R
ELIZABETH CITY LGT RAIN  68  65  90 SW13      29.91F
AHOSKIE*       CLOUDY    69  64  82 S6        29.92F
EDENTON*       CLOUDY    69  69  98 S6        29.93F
CURRITUCK*     RAIN      74  62  65 SW15G22   29.92F
KILL DEVIL HLS LGT RAIN  73  67  80 SW8       29.93S
MANTEO         NOT AVBL
CAPE HATTERAS  CLOUDY    71  69  93 SW10      29.98S
TARBORO*       MOCLDY    74  64  72 S9        29.94R
GOLDSBORO      NOT AVBL
WASHINGTON     MOCLDY    66  65  94 CALM      29.96R
GREENVILLE     DRIZZLE   70  68  94 SW9       29.97R
NEW BERN       CLOUDY    73  67  81 SW8       29.98R
WILMINGTON     MOCLDY    74  68  81 S8        29.99R
$$

VAZ048-030200-
ELSEWHERE

CITY           SKY/WX    TMP DP  RH WIND       PRES   REMARKS
HARRISBURG PA  CLOUDY    63  57  81 E6        29.86S HAZE
BALTIMORE      TSTM      64  62  93 SE7       29.83F FOG
ANNAPOLIS      LGT RAIN  65  64  97 N5        29.84R FOG
ANDREWS AFB    NOT AVBL
PHILADELPHIA   CLOUDY    61  54  77 E7        29.92S
HENDERSON NC   MOCLDY    67  67 100 S6        29.91R
GREENSBORO     CLOUDY    69  66  90 S6        29.89R
ROCKY MOUNT    LGT RAIN  72  65  78 S13G20    29.93R
$$

VAZ100-030200-
MARINE

STATION/POSITION TIME  TEMP    WIND        PRES    WAVE   SWELL
                       AIR SEA DIR/SP/G            HT/PER HT/PER
                 (UTC) (F)     (DEG/KT/KT) (MB)    (FT/S) (FT/S)
BRANDYWINE LGT   0000   57                 1012.3R
CAPE MAY NJ      0000   55 59              1012.3R
LEWES DE         0000   57 58              1011.9R
15NM E FENWICK I 0050   55 53              1012.0F   3/11
OCEAN-CITY-INLET 0000   59 56              1011.7R
WACHAPREAGUE VA  0000   66 66              1011.4R
THOMAS POINT MD  0100   63 60  170/ 19/ 41 1012.5R
GOOSES REEF MD   0000   64 59  130/  8/  8 1011.0F   1
COVE POINT MD    0000   67                 1010.4F
SOLOMONS ISLAND  0000   65 62                N/A
BISHOPS HEAD MD  0000   66 67              1009.9F
PINEY POINT MD   0000          190/ 11/ 12   N/A
POTOMAC MD       0000   65 60  170/ 12/ 19 1009.8R
CAMBRIDGE MD     0000   72 60              1009.6F
LEWISETTA VA     0000   74 62              1010.0R
RAPPAHANNOCK LGT 0000                      1011.8R
STINGRAY PT      0000   69 63  220/  8/ 33 1012.0R   0
YORK RVR RNG VA  0000   67                 1010.5R
YORKTOWN VA      0000   73 63              1010.9R
JAMESTOWN VA     0000   69 67  340/ 10/ 23   N/A     1
DOMINION TERM VA 0000   74                 1011.2F
KIPTOPEKE VA     0000      63                N/A
CHES BAY BRIDGE  0000   79 59              1010.9R
CAPE HENRY VA    0000   80                   N/A
CHESAPEAKE LGHT  0000   70     190/ 22/ 23 1012.0R
WILLOUBY STN VA  0000   80                 1012.1F
CAPE HENRY BUOY  0012      62                N/A     3/11   2/11
CAPE CHARLES BUO 0026      59                N/A     3/10   2/10
OFFSHORE WE BUOY 0021      57                N/A     3/11   3/11
64NM E OF VA BCH 0050   62 54  200/ 17/ 19 1013.0R   4/10   2/10
DUCK PIER NC     0000   76 63              1013.1R
44100 DUCK FRF   0024      62                N/A     3/11   2/11
44056 DUCK FRF   0011      59                N/A     3/11   2/11
OREGON INLET NC  0000   72 72              1014.2R
HATTERAS NC      0000   71 70              1014.9R
DIAMOND SHLS NC  0050   75 74  220/ 14/ 17 1015.0F   4/11   2/11
CAPE LOOKOUT NC  0000   71     200/ 10/ 11 1014.9R
$$
 C1F1C2F2C3F3C4F4C5F5C6F6C7F7C8M1C9!



USA.gov is the U.S. government's official web portal to all federal, state and local government web resources and services.